TimeEST,TemperatureF,Dew PointF,Humidity,Sea Level PressureIn,VisibilityMPH,Wind Direction,Wind SpeedMPH,Gust SpeedMPH,PrecipitationIn,Events,Conditions,WindDirDegrees,DateUTC
12:37 AM,59.0,55.4,88,29.62,10.0,South,5.8,-,N/A,,Scattered Clouds,170,2012-02-23 05:37:00
12:53 AM,60.1,55.0,83,29.60,10.0,SSE,5.8,-,N/A,,Mostly Cloudy,160,2012-02-23 05:53:00
1:53 AM,60.1,55.9,86,29.59,10.0,SSE,5.8,-,N/A,,Mostly Cloudy,160,2012-02-23 06:53:00
2:53 AM,60.1,55.9,86,29.60,8.0,SW,3.5,-,N/A,,Overcast,230,2012-02-23 07:53:00
3:53 AM,61.0,55.9,83,29.60,10.0,South,6.9,-,N/A,,Mostly Cloudy,170,2012-02-23 08:53:00
4:53 AM,61.0,57.0,87,29.61,10.0,SSE,4.6,-,N/A,,Overcast,160,2012-02-23 09:53:00
5:53 AM,62.1,57.0,84,29.62,9.0,SSW,4.6,-,N/A,,Overcast,200,2012-02-23 10:53:00
6:53 AM,62.1,55.9,80,29.61,9.0,South,8.1,-,N/A,,Mostly Cloudy,190,2012-02-23 11:53:00
7:38 AM,60.8,55.4,82,29.65,9.0,WSW,6.9,-,N/A,,Mostly Cloudy,240,2012-02-23 12:38:00
7:53 AM,61.0,55.9,83,29.64,9.0,SSW,5.8,-,N/A,,Mostly Cloudy,210,2012-02-23 12:53:00
8:53 AM,62.1,55.9,80,29.65,10.0,South,4.6,-,N/A,,Mostly Cloudy,190,2012-02-23 13:53:00
9:53 AM,64.9,57.0,75,29.65,10.0,SSW,8.1,-,0.01,,Scattered Clouds,200,2012-02-23 14:53:00
10:53 AM,68.0,57.9,70,29.64,10.0,South,9.2,-,N/A,,Scattered Clouds,170,2012-02-23 15:53:00
11:15 AM,66.2,57.2,73,29.65,10.0,South,11.5,17.3,N/A,,Mostly Cloudy,170,2012-02-23 16:15:00
11:50 AM,69.8,57.2,64,29.63,10.0,South,11.5,17.3,N/A,,Scattered Clouds,180,2012-02-23 16:50:00
11:53 AM,69.1,57.0,65,29.62,10.0,South,11.5,17.3,N/A,,Scattered Clouds,170,2012-02-23 16:53:00
12:53 PM,73.0,55.9,55,29.58,10.0,SSE,15.0,20.7,N/A,,Scattered Clouds,160,2012-02-23 17:53:00
1:53 PM,75.0,54.0,48,29.53,10.0,South,15.0,27.6,N/A,,Scattered Clouds,190,2012-02-23 18:53:00
2:53 PM,77.0,52.0,42,29.50,10.0,South,20.7,33.4,N/A,,Scattered Clouds,170,2012-02-23 19:53:00
3:53 PM,78.1,50.0,37,29.48,10.0,South,19.6,31.1,N/A,,Scattered Clouds,180,2012-02-23 20:53:00
4:53 PM,75.9,51.1,42,29.48,10.0,South,21.9,32.2,N/A,,Scattered Clouds,190,2012-02-23 21:53:00
5:53 PM,75.0,52.0,44,29.48,10.0,South,15.0,24.2,N/A,,Scattered Clouds,190,2012-02-23 22:53:00
6:53 PM,73.0,54.0,51,29.49,10.0,SSE,10.4,16.1,N/A,,Scattered Clouds,160,2012-02-23 23:53:00
7:53 PM,72.0,55.0,55,29.50,10.0,South,11.5,-,N/A,,Mostly Cloudy,180,2012-02-24 00:53:00
8:53 PM,71.1,55.0,57,29.52,10.0,South,6.9,-,N/A,,Mostly Cloudy,190,2012-02-24 01:53:00
9:53 PM,71.1,57.0,61,29.53,10.0,South,12.7,-,N/A,,Mostly Cloudy,180,2012-02-24 02:53:00
10:53 PM,70.0,59.0,68,29.54,10.0,South,9.2,23.0,N/A,,Mostly Cloudy,190,2012-02-24 03:53:00
11:53 PM,70.0,60.1,71,29.54,10.0,South,11.5,19.6,N/A,,Mostly Cloudy,180,2012-02-24 04:53:00